GFSNW_500_rhum_294.txt.gz
RH
48 45 44 47 47 44 42 40 40 39 38 36 37 38 40 40 42 45 48 48 48 46 48 50 53 58 78 100 100 96 97 96 86 79 74 76 73 85 82 100 100 100 97 44
47 50 48 41 35 31 30 28 24 31 33 30 28 27 24 20 20 25 30 37 38 39 42 47 45 54 91 100 100 100 100 100 98 92 84 87 96 92 100 100 100 97 100 60
23 30 27 25 24 25 25 22 14 12 11 14 18 18 16 14 14 17 24 26 26 32 35 41 41 43 73 90 100 100 100 99 100 100 100 100 92 82 85 100 99 100 90 99
35 24 24 24 21 21 22 19 18 19 18 18 16 13 13 14 17 18 17 20 25 27 26 29 36 42 55 89 100 97 100 93 96 100 100 99 92 86 83 84 89 100 87 100
52 40 33 30 24 19 17 19 19 19 19 17 12 10 11 12 16 21 20 20 21 22 20 19 17 20 26 40 49 67 76 80 91 81 84 90 75 74 86 84 81 83 94 81
55 40 36 28 22 19 19 20 22 21 19 14 11 12 12 11 11 11 14 16 15 14 27 32 28 29 21 22 32 100 95 62 59 34 61 54 27 46 58 73 92 100 92 82
36 26 23 23 25 24 24 27 25 21 16 15 14 13 11 9 10 9 12 14 15 52 32 33 58 79 100 53 40 66 76 84 97 83 100 72 74 77 79 88 100 100 97 97
22 21 25 26 30 31 32 34 30 20 18 16 14 11 10 8 12 16 16 18 17 16 20 43 45 52 52 62 98 100 100 100 100 100 100 75 56 71 75 99 100 100 100 100
27 29 30 30 33 39 38 32 26 23 20 14 11 11 16 22 34 38 40 41 38 37 40 44 76 95 96 73 100 100 100 100 100 100 100 76 67 100 100 96 97 96 95 90
35 37 39 42 43 43 30 27 26 24 20 10 14 18 36 58 61 62 66 65 61 55 54 53 53 55 67 75 100 100 100 100 100 100 100 80 72 100 100 100 100 86 69 69
45 39 37 36 41 37 34 31 22 18 10 8 37 75 74 80 74 70 65 62 56 58 57 65 80 88 96 85 83 100 100 100 99 100 100 85 96 97 82 84 99 100 99 96
45 43 46 48 45 36 30 20 14 11 14 36 74 72 74 70 71 66 61 53 47 60 76 85 98 89 88 83 73 74 95 98 100 100 100 100 100 89 74 76 100 98 89 99
53 59 62 45 35 22 14 6 23 48 69 75 67 65 64 63 51 42 38 50 62 77 100 100 100 100 94 82 76 88 90 84 80 82 77 92 95 88 83 46 66 100 100 100
38 52 60 44 16 8 12 38 95 99 78 57 40 39 37 36 64 92 100 100 99 97 99 100 99 94 81 70 62 63 66 88 98 67 70 72 80 96 94 76 71 100 100 100
45 39 27 12 7 23 59 98 99 78 59 32 26 19 39 92 88 100 100 92 71 75 70 77 79 70 67 68 91 98 100 100 100 90 81 91 89 100 99 81 98 100 100 100
20 13 6 15 47 87 99 83 81 51 35 20 17 49 63 78 94 98 92 84 82 87 82 66 54 54 73 74 66 75 92 96 91 100 100 100 100 100 100 100 100 100 100 100
10 8 31 70 97 90 68 58 47 34 44 41 47 59 62 71 72 68 62 63 66 68 71 84 100 100 100 91 99 100 100 100 100 100 100 98 98 100 100 100 100 100 96 62
16 50 80 96 76 61 54 38 27 47 60 67 60 55 71 80 88 85 94 100 100 100 100 100 100 99 99 100 100 100 100 100 100 100 100 100 100 100 100 100 95 61 32 25
67 91 92 75 60 47 41 28 34 54 66 70 91 86 67 85 100 100 98 100 100 89 98 97 96 100 93 89 98 100 100 100 100 100 100 100 100 99 84 56 37 31 27 23
94 98 85 66 55 44 45 38 47 59 97 100 88 87 99 100 100 100 98 94 90 95 95 100 100 94 100 100 100 99 93 94 100 100 99 94 82 63 49 45 41 35 34 33
99 98 82 67 52 54 42 50 53 78 92 100 100 98 98 100 100 97 94 94 98 100 100 100 98 100 100 99 100 100 100 98 98 92 78 63 57 56 55 52 48 46 41 30
98 86 76 72 63 43 58 60 56 71 100 84 92 100 100 100 98 96 93 100 99 100 100 100 100 100 100 100 100 100 99 92 78 66 59 57 56 54 52 52 54 52 42 29
96 87 84 79 57 47 68 58 64 83 87 89 91 100 100 100 98 91 100 100 100 100 100 95 100 100 100 99 100 99 87 78 74 69 66 61 59 57 57 57 58 59 48 32
100 94 89 70 40 51 58 76 94 85 85 82 95 96 98 97 100 98 100 100 100 99 97 99 100 100 98 98 98 90 77 64 56 58 65 64 59 60 61 61 63 64 55 35
99 95 100 38 53 66 69 89 94 78 74 86 78 90 100 100 100 100 100 100 100 100 98 100 100 100 97 97 91 68 40 34 46 56 67 74 74 74 72 71 70 70 63 41
91 100 72 39 66 69 79 94 91 68 74 80 81 99 96 98 100 100 100 100 100 100 100 100 100 98 98 96 77 53 41 42 51 64 77 78 78 82 84 79 77 73 72 49
100 73 33 50 60 57 68 70 68 58 66 75 98 91 95 100 95 100 100 100 100 100 100 100 100 100 99 96 87 71 57 58 72 81 79 88 84 84 86 84 85 79 77 60

GFSNW_500_rhum_300.txt.gz
RH
60 60 63 63 56 53 52 38 32 24 24 22 21 23 23 24 26 29 32 34 34 32 28 23 19 17 15 15 16 20 29 37 34 52 99 100 100 100 100 100 97 100 100 71
77 75 73 58 50 46 41 31 26 26 24 26 27 27 27 32 36 37 39 36 31 30 28 24 22 19 17 17 17 20 34 40 63 80 97 100 100 100 100 100 100 97 100 73
55 47 49 58 53 42 29 30 27 26 25 28 30 30 36 40 40 37 34 31 30 29 26 24 24 21 17 15 18 29 50 36 61 53 50 74 94 100 100 100 100 100 92 88
46 42 38 37 36 33 32 32 32 32 37 47 48 49 46 39 36 34 36 37 35 32 31 30 24 19 17 20 32 60 80 68 73 64 70 79 70 74 98 99 89 95 71 57
50 51 47 52 48 46 45 42 37 33 35 36 35 39 35 34 30 33 36 36 36 36 31 24 18 17 25 25 57 92 100 100 100 84 96 87 82 93 97 80 76 73 86 62
69 68 63 61 56 49 45 43 40 36 32 25 18 23 25 26 29 35 40 38 29 25 24 22 25 31 36 37 36 48 95 100 99 94 94 84 72 91 100 100 100 91 84 87
71 61 66 65 61 60 58 54 43 34 26 16 12 28 38 36 35 32 34 28 23 29 30 35 47 54 53 53 48 59 80 77 85 77 95 92 95 96 100 98 90 93 89 84
80 78 80 78 64 57 50 43 30 18 11 6 36 36 28 28 31 30 22 32 36 52 66 70 69 73 71 69 68 69 73 78 78 87 97 94 80 100 100 100 91 100 93 98
97 94 79 76 69 49 39 25 12 5 5 27 34 19 19 20 18 22 39 57 76 92 96 90 82 77 73 67 59 55 80 100 100 100 100 100 92 100 100 99 94 98 92 94
95 88 88 72 65 41 30 9 8 5 17 28 16 14 13 15 21 42 78 87 85 82 80 77 69 54 44 46 98 100 100 100 100 100 100 94 92 100 99 93 96 87 88 87
80 94 85 73 48 21 9 6 7 26 37 17 13 12 18 36 80 75 69 63 57 52 56 53 54 54 59 66 88 98 98 99 86 90 90 88 92 99 100 100 100 97 92 85
89 85 59 30 13 11 8 11 31 43 20 12 14 39 54 83 72 56 44 35 36 45 56 67 64 70 73 87 67 91 94 100 100 100 93 100 100 96 100 95 86 87 83 75
39 26 17 12 10 13 24 45 38 22 16 18 54 72 85 69 42 24 20 47 69 58 57 69 66 66 80 85 87 83 91 91 93 95 92 98 96 96 99 92 88 75 76 71
12 14 22 20 20 37 52 44 24 18 13 37 99 89 54 34 28 26 30 43 53 54 66 79 88 98 93 91 97 100 100 100 100 99 100 96 97 99 99 98 100 96 93 98
16 26 36 38 51 68 64 28 19 18 40 70 63 44 36 44 36 40 45 51 59 65 77 99 100 100 100 97 92 100 100 100 100 100 100 100 100 97 96 99 97 99 100 100
48 58 75 90 96 84 42 17 31 55 84 66 40 34 69 57 53 52 48 63 86 91 89 92 97 100 100 95 100 100 100 100 100 100 100 100 98 96 100 100 100 100 100 100
61 90 99 93 70 40 22 35 82 98 71 48 32 38 63 56 58 69 83 97 94 100 100 100 100 100 100 100 100 97 100 97 100 100 100 100 100 100 100 100 99 90 62 32
60 62 55 43 25 30 61 100 100 78 54 40 26 45 71 72 83 99 95 100 100 100 100 100 100 100 100 99 100 100 93 98 100 100 100 100 98 91 80 65 49 44 43 46
80 71 53 35 75 99 100 100 95 64 48 32 49 72 74 84 86 85 89 100 98 93 93 99 100 100 100 100 100 100 100 100 100 95 84 72 63 58 58 58 59 59 58 56
93 72 97 100 100 100 100 100 86 59 46 39 62 68 66 69 70 84 83 89 89 98 98 100 100 98 100 100 100 100 100 89 76 66 61 59 58 57 56 57 59 60 60 58
100 100 100 100 100 100 100 98 77 57 46 52 79 80 78 93 84 96 100 100 100 100 100 100 99 100 100 100 100 97 88 76 67 64 62 64 68 73 74 71 67 62 58 56
100 100 100 100 100 100 100 88 64 51 56 67 91 90 95 97 92 100 100 99 100 100 100 99 95 96 100 100 98 98 84 76 73 74 76 76 77 78 79 79 77 72 66 62
100 100 100 100 100 100 100 83 64 70 69 77 92 98 100 99 100 100 100 97 100 100 100 97 90 94 100 100 99 96 76 58 58 58 66 76 85 86 84 84 83 80 77 76
99 97 100 100 100 100 98 67 71 75 83 86 89 99 92 100 100 100 100 100 100 100 100 98 90 89 100 100 98 89 46 43 52 53 76 90 85 83 80 79 80 83 83 84
97 100 100 100 100 100 82 73 83 78 92 84 76 89 96 100 100 100 100 100 100 100 100 100 96 91 100 100 98 86 60 67 76 74 85 90 91 88 84 82 83 84 85 89
100 100 100 97 98 100 86 69 73 82 91 74 64 72 89 91 96 100 100 100 100 100 100 100 100 97 99 100 100 98 91 95 96 95 94 90 74 88 98 96 94 95 92 93
100 100 100 95 94 100 98 56 64 88 90 74 59 57 64 68 73 94 100 100 100 100 100 100 99 99 94 100 100 100 100 100 100 100 100 100 90 99 100 99 98 100 97 97

GFSNW_500_rhum_303.txt.gz
RH
33 56 68 69 56 49 42 42 41 40 42 41 41 39 40 42 43 43 41 41 40 38 36 35 33 33 34 32 29 27 26 32 26 34 49 70 99 100 100 100 100 100 100 84
45 71 83 65 48 41 39 44 48 50 47 42 39 34 33 34 33 31 29 26 24 29 34 36 35 36 35 34 30 30 34 38 40 32 32 46 64 82 99 100 100 99 100 82
78 92 84 49 49 59 60 56 49 46 41 41 39 41 43 41 35 28 21 16 16 22 29 35 32 37 39 36 33 28 39 40 52 59 47 55 63 82 84 100 99 99 93 89
93 98 81 70 70 70 65 63 55 46 51 54 45 41 41 29 21 14 8 14 23 28 30 32 36 38 38 34 32 34 56 46 52 59 88 100 100 100 100 100 100 100 88 87
97 94 85 79 88 86 82 77 66 57 54 48 41 40 28 13 8 7 15 27 28 27 32 33 30 32 32 30 32 39 42 38 47 58 100 100 100 100 100 100 100 100 97 86
88 92 96 98 96 89 83 91 81 73 54 53 43 32 14 8 8 17 31 24 16 19 25 26 29 34 42 54 60 64 61 60 58 55 66 94 85 69 96 100 100 100 100 100
99 98 94 93 97 97 90 81 75 69 65 67 40 15 10 8 12 27 25 16 15 16 18 29 54 73 87 93 89 85 82 80 80 84 100 93 78 87 97 100 100 100 100 100
94 98 97 95 95 100 93 85 87 85 71 53 18 8 7 16 34 24 15 14 15 31 61 71 74 81 84 81 76 70 70 73 85 92 99 100 86 100 100 100 100 100 100 100
86 100 100 100 99 100 100 100 100 73 44 22 7 12 32 36 22 14 16 23 54 83 79 71 69 54 49 45 48 67 86 100 100 100 100 100 99 100 100 100 100 100 100 100
97 96 100 100 98 93 85 80 66 42 23 14 15 35 34 24 15 14 39 69 80 69 53 44 43 44 58 57 71 83 93 93 98 100 100 88 96 98 94 90 100 98 91 84
74 62 51 40 34 32 28 36 50 34 22 14 42 40 28 15 19 36 63 57 35 24 30 42 49 52 57 60 85 100 93 100 94 83 73 70 86 98 100 100 94 80 89 88
22 20 17 11 14 23 32 32 53 41 23 32 56 32 20 21 49 53 48 27 25 37 36 53 67 71 79 88 75 100 99 100 100 100 100 100 100 100 98 83 74 81 93 99
12 12 12 16 26 41 60 64 81 66 41 71 40 22 33 58 59 41 28 36 45 58 66 69 75 77 66 69 69 87 100 100 100 100 100 99 100 100 100 95 90 95 100 99
18 19 17 15 26 77 100 100 100 100 97 81 27 61 86 64 42 26 39 46 52 57 66 74 89 99 89 83 92 95 100 100 100 95 100 100 100 100 99 95 94 95 89 88
56 40 30 26 28 66 100 100 100 100 91 35 70 100 81 44 28 37 41 47 60 63 64 71 76 87 96 93 97 100 100 99 100 100 97 96 100 100 100 97 97 99 100 100
72 55 34 28 48 82 97 100 100 90 32 38 100 90 46 37 27 46 54 59 73 76 86 88 92 98 99 94 96 97 99 100 100 100 100 99 100 99 100 100 100 100 100 90
85 57 42 48 85 95 88 84 73 74 94 100 99 52 56 57 50 61 78 85 91 97 90 100 100 100 100 100 94 94 93 84 95 100 100 98 98 96 93 83 67 51 42 39
82 58 76 81 92 87 54 54 84 100 100 100 70 55 74 72 76 92 96 100 100 99 100 97 99 96 100 100 100 97 88 87 92 98 86 74 67 61 57 54 54 55 55 55
69 79 90 89 76 55 99 100 100 100 100 95 56 56 95 97 94 100 96 100 100 96 92 95 94 96 100 100 99 99 98 89 78 67 59 56 54 54 55 55 53 53 54 55
80 88 90 87 92 100 100 100 100 100 100 77 53 69 93 88 88 92 88 97 91 96 95 95 94 98 100 100 98 98 83 72 63 56 57 64 67 68 70 72 71 68 66 64
92 95 91 100 100 100 100 100 100 100 98 68 58 95 99 89 88 100 98 91 97 100 100 99 98 98 100 100 99 94 81 67 61 68 76 77 79 82 83 82 80 79 79 78
100 87 96 100 98 98 99 100 100 100 89 66 72 100 100 98 100 100 100 100 100 100 100 100 100 100 100 100 98 95 84 76 72 75 77 82 87 84 83 80 76 74 74 76
100 96 100 100 97 100 100 100 100 89 80 76 90 100 100 100 100 100 100 100 100 100 100 100 100 100 100 100 99 96 85 62 60 64 78 93 95 93 90 90 90 86 85 87
100 100 100 100 100 100 100 100 98 86 87 100 100 100 100 100 100 100 100 100 100 100 100 100 100 100 97 97 100 99 86 53 54 72 82 89 90 86 91 96 97 94 91 94
100 100 100 100 100 100 100 95 86 82 88 100 100 92 97 100 100 100 100 100 100 100 100 100 100 100 96 92 99 100 98 80 82 92 98 99 100 100 96 97 95 96 96 95
100 100 100 100 100 100 100 96 77 73 77 89 86 81 78 89 84 96 100 100 100 100 100 100 100 100 100 96 91 99 100 100 98 100 100 100 100 100 99 98 97 100 97 95
98 100 100 100 100 97 100 100 77 68 76 93 87 78 69 68 67 74 96 100 100 100 100 100 100 100 100 99 100 92 91 100 100 100 100 100 100 100 100 100 100 100 98 96

GFSNW_500_rhum_306.txt.gz
RH
29 38 58 61 64 67 74 94 62 54 62 65 67 64 70 81 66 58 45 35 32 28 23 20 11 11 15 24 31 37 39 40 38 40 39 41 41 44 48 51 84 100 100 91
69 68 68 67 69 74 80 97 73 70 80 95 96 78 74 70 64 55 44 39 33 23 17 13 11 21 28 30 35 37 36 36 38 38 41 45 45 54 60 80 100 100 100 100
71 75 76 72 77 84 96 100 93 90 88 80 72 71 74 72 73 61 54 47 28 19 14 11 16 26 24 27 35 38 34 33 38 40 58 74 72 74 94 99 100 96 99 96
76 79 89 94 87 84 91 97 87 82 83 72 63 64 78 70 68 62 57 35 20 11 7 13 24 26 21 24 29 34 37 31 38 40 52 91 92 86 100 100 100 100 92 96
89 90 90 97 85 83 85 93 96 82 75 75 77 88 83 84 69 48 30 15 10 11 22 28 22 18 18 16 24 44 62 54 61 58 62 61 54 51 100 100 100 100 87 69
92 86 83 83 85 70 73 81 89 93 87 91 86 92 86 75 54 40 18 9 8 29 29 22 17 15 22 38 59 81 86 94 90 80 82 79 74 77 92 98 88 83 94 100
56 51 49 53 68 85 80 89 85 81 79 88 93 94 78 72 56 27 14 12 22 26 20 15 20 39 60 76 86 82 77 82 76 72 77 78 73 82 90 98 100 100 100 100
42 42 39 42 46 56 48 49 47 51 51 56 57 67 83 61 38 20 18 36 31 22 16 20 43 56 59 62 58 53 53 58 75 90 100 100 96 100 100 100 100 100 100 100
24 14 8 6 6 7 9 9 11 14 16 23 42 64 80 72 44 28 40 37 22 18 40 58 48 36 28 31 52 72 71 96 99 100 100 99 99 100 94 94 93 99 100 93
6 6 7 8 9 10 11 12 17 23 30 49 94 100 100 90 66 42 49 24 36 64 61 35 24 24 33 50 57 67 92 86 85 97 91 69 83 81 78 80 78 81 75 86
4 6 10 15 22 28 31 27 32 26 20 28 100 100 100 100 85 71 40 38 78 50 29 27 34 58 67 72 87 97 91 94 95 97 99 100 99 100 100 99 99 100 100 99
16 27 37 46 54 59 64 48 38 34 30 28 85 100 100 100 98 57 49 94 48 34 39 54 63 64 70 72 64 98 99 100 100 100 100 100 100 100 100 100 100 100 100 100
41 48 52 55 56 65 72 57 34 39 46 50 100 100 100 100 59 56 100 63 44 57 58 57 70 66 69 75 66 75 92 100 99 97 99 100 100 100 100 100 100 91 87 89
10 10 17 30 46 63 79 44 30 69 83 87 100 99 100 96 73 100 89 48 56 60 76 80 76 81 81 77 76 81 100 97 99 100 100 99 100 100 100 100 100 94 89 95
6 6 8 28 65 91 63 35 56 98 100 88 100 100 100 100 100 88 49 62 69 73 79 78 82 94 98 92 91 100 96 96 100 100 98 96 100 100 100 96 91 90 95 100
8 9 19 66 100 74 52 57 99 98 100 82 98 100 100 100 85 50 52 78 90 88 90 98 100 100 100 96 95 89 92 94 88 93 94 100 100 98 95 92 94 91 71 40
18 24 85 100 80 65 68 69 67 68 99 99 100 100 99 91 72 57 62 92 100 100 100 100 100 100 100 100 97 100 84 75 79 84 97 90 77 63 56 52 52 53 54 55
37 59 100 95 75 78 69 64 88 100 100 100 100 100 96 82 79 80 91 97 97 99 100 100 100 100 100 100 100 100 91 86 85 81 64 57 55 53 53 52 52 52 53 53
46 100 100 90 86 70 80 100 97 99 100 100 100 99 94 87 82 99 98 99 100 100 100 100 100 100 100 100 100 98 93 76 62 57 55 56 59 62 64 64 63 64 66 68
85 100 100 100 90 95 95 92 100 100 100 100 100 94 83 98 96 100 96 100 100 100 100 100 100 100 100 100 100 92 71 63 57 61 70 73 75 74 74 74 74 73 72 73
100 100 100 96 95 96 88 99 100 100 100 100 96 76 100 100 100 100 100 100 100 100 100 100 100 100 100 100 99 87 72 65 72 80 79 82 82 80 80 81 82 83 84 85
100 100 100 91 92 100 100 100 100 100 100 98 75 99 100 100 100 100 100 100 100 100 100 100 100 100 100 100 100 96 84 79 76 78 80 85 90 94 95 93 90 87 86 87
100 100 100 95 99 100 100 100 100 100 94 84 79 100 100 100 100 100 100 100 100 100 100 100 100 100 100 100 100 98 93 83 66 63 73 85 88 95 96 95 97 94 88 91
100 100 100 100 100 100 100 100 100 100 100 100 100 100 100 100 100 100 100 100 100 100 100 100 100 100 100 100 100 100 100 96 78 67 75 91 98 100 100 100 100 98 97 94
100 100 100 100 100 100 100 100 99 100 97 93 100 100 100 100 100 100 100 100 100 100 100 100 100 100 100 100 100 96 94 98 100 98 97 98 100 100 100 100 100 100 99 93
100 100 100 100 100 100 100 100 100 90 86 100 100 100 95 85 88 94 99 100 100 100 100 100 100 100 100 100 100 100 97 91 91 97 100 100 100 100 100 100 100 100 100 95
100 100 100 100 99 94 92 100 100 97 70 93 100 95 91 72 64 64 78 83 100 100 100 100 100 100 100 100 97 100 100 100 100 100 100 100 100 100 100 100 99 100 100 96